Regional Weather Roundup
Issued by NWS

Home | Current Version | Previous Version | Graphics & Text | Print | Product List | Glossary On
Versions: 1 2 3 4 5 6 7 8 9 10 11 12 13 14 15 16 17 18 19 20 21 22 23 24 25 26 27 28 29 30 31 32 33 34 35 36 37 38 39 40 41 42 43 44 45 46 47 48 49 50
000
ASUS43 KLOT 301500
RWRIL

ILLINOIS REGIONAL WEATHER ROUNDUP
NATIONAL WEATHER SERVICE CHICAGO/ROMEOVILLE IL
1000 AM CDT THU OCT 30 2014

NOTE: "FAIR" INDICATES FEW OR NO CLOUDS BELOW 12,000 FEET WITH NO
SIGNIFICANT WEATHER AND/OR OBSTRUCTIONS TO VISIBILITY.

* THESE STATIONS ARE NOT UNDER NWS QUALITY CONTROL. THEY ALSO MAY NOT
  REPORT WEATHER SUCH AS PRECIPITATION OR FOG.

ILZ001-002-007-009-015-016-024-301600-
NORTHWEST ILLINOIS

CITY           SKY/WX    TMP DP  RH WIND       PRES   REMARKS
MOLINE         CLOUDY    43  36  76 CALM      30.11S
STERLING*      CLOUDY    41  34  75 W3        30.13S
$$

ILZ003-004-008-010-011-017-018-301600-
NORTH CENTRAL ILLINOIS

CITY           SKY/WX    TMP DP  RH WIND       PRES   REMARKS
ROCKFORD       CLOUDY    40  34  79 SW3       30.13F
FREEPORT*      CLOUDY    41  36  81 CALM      30.13S
$$

ILZ005-006-012>014-019>023-301600-
NORTHEAST ILLINOIS

CITY           SKY/WX    TMP DP  RH WIND       PRES   REMARKS
CHICAGO-OHARE  PTSUNNY   42  34  73 SW7       30.13F
CHICAGO-MIDWAY PTSUNNY   44  35  70 SW7       30.14F
AURORA         PTSUNNY   42  35  76 S7        30.13F
LANSING*       PTSUNNY   43  36  76 SW3       30.15F
WAUKEGAN       PTSUNNY   43  34  70 S7        30.12F
DUPAGE AIRPORT PTSUNNY   44  36  73 S6        30.12F
WHEELING       PTSUNNY   44  34  67 S7        30.15F
NORTHERLY ISL    N/A     44  33  65 SW7         N/A
$$

LMZ740>746-301600-
SOUTHERN LAKE MICHIGAN

STATION/POSITION SKY/WX   TEMP    WIND        PRES    VSBY  WAVE
                          AIR SEA DIR/SP/G                  HT/PER
                          (F)     (DEG/KT/KT) (MB)    (MI)  (FT/S)
SOUTHERN BUOY              48 53  230/ 10/ 12 1020.3R         1/ 5
WAUKEGAN HARBOR            44     230/  7/  9   N/A
HARRISON CRIB              44     200/ 10/ 12   N/A
BURNHAM HARBOR             45     200/  5/  6   N/A
CALUMET HARBOR             43     210/  4/  6 1019.6F
MICHIGAN CITY              44     190/  7/  9   N/A
$$

ILZ025>027-034>036-040-047-049-050-058-095>099-301600-
WEST-CENTRAL ILLINOIS

CITY           SKY/WX    TMP DP  RH WIND       PRES   REMARKS
QUINCY         LGT RAIN  45  39  79 S14       30.07F
GALESBURG*     CLOUDY    41  38  87 CALM      30.11F
MACOMB*        CLOUDY    43  38  83 S7        30.13S
$$

ILZ028>032-037-038-041>044-048-051>054-059>061-301600-
CENTRAL ILLINOIS

CITY           SKY/WX    TMP DP  RH WIND       PRES   REMARKS
DECATUR        MOSUNNY   46  37  71 S9        30.16S
PEORIA         CLOUDY    46  38  73 S8        30.13F
LINCOLN*       MOSUNNY   46  38  74 S7        30.14F
SPRINGFIELD    MOSUNNY   49  39  68 S10       30.14F
TAYLORVILLE    NOT AVBL
$$

ILZ033-039-045-046-055>057-062-063-301600-
EAST-CENTRAL ILLINOIS

CITY           SKY/WX    TMP DP  RH WIND       PRES   REMARKS
CHAMPAIGN      PTSUNNY   46  37  71 S8        30.15F
MATTOON        MOSUNNY   46  36  68 S9        30.15F
$$

ILZ079-100>102-301600-
SOUTHWEST ILLINOIS

CITY           SKY/WX    TMP DP  RH WIND       PRES   REMARKS
ALTON          PTSUNNY   46  41  81 SE7       30.15S
BELLEVILLE     MOSUNNY   49  42  78 S7        30.15S
CAHOKIA*       PTSUNNY   49  40  71 S8        30.15S
$$

ILZ064>066-069>071-074>076-080>082-084>086-088>090-092>094-301600-
SOUTH-CENTRAL ILLINOIS

CITY           SKY/WX    TMP DP  RH WIND       PRES   REMARKS
CARBONDALE     SUNNY     48  40  73 S5        30.17F
MARION         SUNNY     50  41  71 SE6       30.18F
MT. VERNON     SUNNY     48  37  66 SE7       30.18S
$$

ILZ067-068-072-073-078-083-087-091-301600-
SOUTHEAST ILLINOIS

CITY           SKY/WX    TMP DP  RH WIND       PRES   REMARKS
LAWRENCEVILLE  SUNNY     47  32  56 CALM      30.19S
HARRISBURG*    SUNNY     47  43  84 SE5       30.19F
CARMI*         SUNNY     49  43  78 SE3       30.18S
$$

ABBREVIATIONS USED IN REMARKS
   TC - TEMPERATURE IN CELSIUS
  WCI - WIND CHILL INDEX
   HX - HEAT INDEX
  VSB - VISIBILITY
$$




USA.gov is the U.S. government's official web portal to all federal, state and local government web resources and services.